Location: Unspecified
(41.5516°N, 88.1098°W)
Time: 14:34:57
(UTC-05:00)

Cosmos 1674 - Visible Passes

Search period start: 22 July 2014 00:00
Search period end: 01 August 2014 00:00
Orbit: 516 x 543 km, 82.5° (Epoch: 21 July)

Date Brightness Start Highest point End Pass type
(mag) Time Alt. Az. Time Alt. Az. Time Alt. Az.
22 Jul 5.7 04:27:52 10° NNE 04:30:32 17° ENE 04:33:10 10° ESE visible
23 Jul 5.7 04:17:21 10° NNE 04:19:50 16° ENE 04:22:19 10° ESE visible
24 Jul 5.8 04:06:50 10° NE 04:09:09 15° ENE 04:11:26 10° ESE visible
25 Jul 5.8 03:56:21 10° NE 03:58:27 14° ENE 04:00:32 10° ESE visible
26 Jul 5.8 03:45:53 10° NE 03:47:45 13° ENE 03:49:35 10° E visible
27 Jul 5.9 03:35:28 10° NE 03:37:02 12° ENE 03:38:36 10° E visible
27 Jul 3.0 05:09:37 10° NNW 05:13:20 46° W 05:17:00 10° SSW visible
28 Jul 5.9 03:25:08 10° NE 03:26:20 11° ENE 03:27:31 10° E visible
28 Jul 2.9 04:58:55 10° NNW 05:02:40 50° W 05:06:22 10° S visible
29 Jul 6.0 03:15:02 10° ENE 03:15:38 10° ENE 03:16:13 10° ENE visible
29 Jul 2.8 04:48:13 10° NNW 04:52:00 54° W 04:55:44 10° S visible
30 Jul 2.7 04:37:32 10° NNW 04:41:20 59° W 04:45:06 10° S visible
31 Jul 2.7 04:26:50 10° NNW 04:30:40 65° W 04:34:27 10° S visible
